ARIANE 5 R/B, 40876

Orbit data source: Space-Track

ARIANE 5 R/B, 40876 is space debris in HEO originally from a launch on Thu, 20 Aug 2015 UTC launched from the French Guiana (FRGUI). Debris objects in space refer to the collection of defunct objects orbiting the Earth. Examples of debris include non-operational satellites, rocket bodies, and fragments generated from explosions, collisions, or faulty payload assembly.

Loading next visibility...
Identifier
40876, 2015-039C
Orbit
HEO
Country
Flag of FRFR
Related business
Manufacturer
Airbus Safran
Mission
Spacecraft
Bus & Motor
ESC-A, Unknown motor
Mass
~5,000 kg wet, ~5,000 kg dry
Launch date (UTC)
2015-08-20 (11 years ago)
Launch vehicle
Unknown
Launch site
French Guiana (FRGUI)
Object type
Payload
Rocket body
Debris
Shape & HBR
Cyl + 1 Nozzle, 3.5 m
Radar Cross Section
41.627 m², Large (>1 m²)

Expand to show TLE details & history
Last TLE update: 23 hours ago

TLE from 23 hours ago
0 ARIANE 5 R/B
1 40876U 15039C   26070.76757141  .00004733  00000-0  12215-2 0  9996
2 40876   5.0732 196.5035 7057672 317.9932   5.5174  2.56702038 92434
Epoch: 2026-03-11T18:25Z
TLE epoch observation values (Epoch: 2026-03-11T18:25:18.169Z)
Latitude
-0.00023°
Longitude
110.47366°
Altitude
1,011.739 km
Speed
9.496 km/s
True Right ascension
13h 04m 54s
True Declination
0° 00' 01"
Sunlit
Object was in full shadow at epoch
Visualization orbit readout
Latitude
Unknown
Longitude
Unknown
Altitude
Unknown
Speed
Unknown
Apparent Right ascension
Unknown
Apparent Declination
Unknown
Sunlit
N/A
Visualization observer readout
Local Sidereal Time
21:32:17
Azimuth
Unknown
Elevation
Unknown
Doppler factor
Unknown
Orbital elements
Apogee altitude
32,063.958 km
Perigee altitude
252.853 km
Semi-major axis
22,536.543 km
Eccentricity
0.70577
Inclination
5.0732°
RAAN
196.5035°
Arg. of periapsis
317.9932°
True anomaly
41.8359°
Mean anomaly
5.5174°
Eccentric anomaly
18.04035°
Mean motion
0.64152 °/min
Orbital period
561.16 mins
BSTAR
0.0012215
Loading maneuver chart data...
Computing Atmospheric mass density...
Loading historical data...
Loading historical data...
Loading historical data...
Loading historical data...
Loading historical data...
Loading historical data...
Loading historical data...
Other satellites on launch #39 in the year 2015 (2015-08-20 UTC)

Documentation

Showing up to 5 results
|